Weather History for Aberdeen / Amory, MS

Change the Weather History Date:

Wednesday, November 21, 2012

  Actual Average (KCBM) Record (KCBM)
Temperature  
Mean Temperature 55 °F -  
Max Temperature 73 °F 61 °F 74 °F (2010)
Min Temperature 37 °F 40 °F 23 °F (2008)
Degree Days  
Heating Degree Days 10    
Growing Degree Days 5 (Base 50)    
Moisture  
Dew Point 37 °F    
Average Humidity 57    
Maximum Humidity 61    
Minimum Humidity 51    
Precipitation  
Precipitation 0.00 in - - ()
Sea Level Pressure  
Sea Level Pressure 30.19 in    
Wind  
Wind Speed 2 mph ()    
Max Wind Speed 12 mph    
Max Gust Speed -    
Visibility 5.5 miles    
Events      
Averages and records for this station are not official NWS values.
T = Trace of Precipitation, MM = Missing Value Source: Averaged Metar Reports

Daily Weather History Graph

Daily Weather History Graph

Search for Another Location

Airport:

Trip Planner

Search our weather history database for the weather conditions in past years. The results will help you decide how hot, cold, wet, or windy it might be!

Date:

Astronomy

Nov. 21, 2012 Rise Set
Actual Time 6:32 AM CST 4:47 PM CST
Civil Twilight 6:05 AM CST 5:14 PM CST
Nautical Twilight 5:34 AM CST 5:44 PM CST
Astronomical Twilight 5:05 AM CST 6:14 PM CST
Moon 12:48 PM CST (11/21) 12:08 AM CST (11/21)
Length of Visible Light 11h 08m
Length of Day
10h 15m
First Quarter, 62% of the Moon is Illuminated
Nov 21
First Quarter
Nov 28
Full
Dec 6
Last Quarter
Dec 13
New
Dec 19
First Quarter

Hourly Weather History & Observations

Time (CST) Temp. Windchill Dew Point Humidity Pressure Visibility Wind Dir Wind Speed Gust Speed Precip Events Conditions
12:15 AM 44.6 °F - 30.2 °F 57% 30.14 in 7.0 mi North - - N/A   Scattered Clouds
12:35 AM 44.6 °F - 30.2 °F 57% 30.14 in 8.0 mi North - - N/A   Scattered Clouds
12:55 AM 44.6 °F - 30.2 °F 57% 30.14 in 8.0 mi Calm Calm - N/A   Scattered Clouds
1:15 AM 44.6 °F - 30.2 °F 57% 30.14 in 7.0 mi Calm Calm - N/A   Scattered Clouds
1:35 AM 44.6 °F - 30.2 °F 57% 30.14 in 7.0 mi North - - N/A   Scattered Clouds
1:55 AM 44.6 °F - 30.2 °F 57% 30.14 in 7.0 mi Calm Calm - N/A   Partly Cloudy
2:15 AM 42.8 °F - 30.2 °F 61% 30.14 in 6.0 mi Calm Calm - N/A   Haze
2:35 AM 42.8 °F - 30.2 °F 61% 30.14 in 7.0 mi North - - N/A   Clear
2:55 AM 42.8 °F - 28.4 °F 57% 30.15 in 4.0 mi Calm Calm - N/A   Haze
3:15 AM 42.8 °F - 28.4 °F 57% 30.15 in 1.2 mi Calm Calm - N/A   Haze
3:35 AM 41.0 °F - 28.4 °F 61% 30.15 in 5.0 mi Calm Calm - N/A   Haze
3:55 AM 39.2 °F - 26.6 °F 61% 30.15 in 1.0 mi North - - N/A   Haze
4:15 AM 39.2 °F - 26.6 °F 61% 30.16 in 1.2 mi North - - N/A   Haze
4:35 AM 39.2 °F - 26.6 °F 61% 30.16 in 4.0 mi North - - N/A   Haze
4:55 AM 39.2 °F - 26.6 °F 61% 30.16 in 5.0 mi Calm Calm - N/A   Haze
5:15 AM 39.2 °F - 26.6 °F 61% 30.17 in 1.8 mi North - - N/A   Haze
5:35 AM 37.4 °F - 24.8 °F 60% 30.16 in 1.0 mi North - - N/A   Haze
5:55 AM 37.4 °F - 24.8 °F 60% 30.17 in 0.5 mi Calm Calm - N/A   Haze
6:15 AM 37.4 °F - 23.0 °F 56% 30.18 in 1.5 mi Calm Calm - N/A   Haze
6:35 AM 37.4 °F - 24.8 °F 60% 30.19 in 3.0 mi North - - N/A   Haze
6:55 AM 37.4 °F 33.8 °F 23.0 °F 56% 30.20 in 0.2 mi WNW 4.6 mph - N/A   Haze
7:15 AM 41.0 °F - 28.4 °F 61% 30.20 in 2.0 mi Calm Calm - N/A   Haze
7:35 AM 44.6 °F 43.1 °F 30.2 °F 57% 30.21 in 3.0 mi WSW 3.5 mph - N/A   Haze
7:55 AM 46.4 °F - 32.0 °F 57% 30.21 in 5.0 mi Calm Calm - N/A   Haze
8:15 AM 48.2 °F - 33.8 °F 58% 30.21 in 5.0 mi Calm Calm - N/A   Haze
8:35 AM 51.8 °F - 35.6 °F 54% 30.22 in 5.0 mi North - - N/A   Haze
8:55 AM 53.6 °F - 37.4 °F 54% 30.22 in 5.0 mi NW 5.8 mph - N/A   Haze
9:15 AM 57.2 °F - 39.2 °F 51% 30.23 in 6.0 mi NW 4.6 mph - N/A   Haze
9:35 AM 60.8 °F - 42.8 °F 52% 30.23 in 6.0 mi West 5.8 mph - N/A   Haze
9:55 AM 62.6 °F - 46.4 °F 55% 30.23 in 7.0 mi North 5.8 mph - N/A   Clear
10:15 AM 64.4 °F - 46.4 °F 52% 30.23 in 7.0 mi NNW 4.6 mph - N/A   Clear
10:55 AM 66.2 °F - 51.8 °F 60% 30.23 in 6.0 mi North 5.8 mph - N/A   Haze
11:15 AM 69.8 °F - 51.8 °F 53% 30.23 in 7.0 mi North 6.9 mph - N/A   Clear
11:35 AM 69.8 °F - 53.6 °F 56% 30.21 in 8.0 mi WNW 8.1 mph - N/A   Clear
11:55 AM 71.6 °F - 53.6 °F 53% 30.20 in 8.0 mi North - - N/A   Clear
12:15 PM 71.6 °F - 55.4 °F 57% 30.20 in 7.0 mi NW 6.9 mph - N/A   Clear
12:35 PM 71.6 °F - 55.4 °F 57% 30.19 in 8.0 mi North - - N/A   Clear
12:55 PM 73.4 °F - 55.4 °F 53% 30.19 in 7.0 mi WSW 6.9 mph - N/A   Clear
1:15 PM 71.6 °F - 55.4 °F 57% 30.19 in 8.0 mi NNW 11.5 mph - N/A   Clear
1:35 PM 73.4 °F - 55.4 °F 53% 30.18 in 8.0 mi West 6.9 mph - N/A   Clear
1:55 PM 73.4 °F - 55.4 °F 53% 30.18 in 8.0 mi West 6.9 mph - N/A   Clear
2:15 PM 73.4 °F - 55.4 °F 53% 30.18 in 9.0 mi North 6.9 mph - N/A   Clear
2:35 PM 73.4 °F - 55.4 °F 53% 30.17 in 8.0 mi WSW 8.1 mph - N/A   Clear
2:55 PM 71.6 °F - 55.4 °F 57% 30.17 in 8.0 mi North 9.2 mph - N/A   Clear
3:15 PM 71.6 °F - 53.6 °F 53% 30.17 in 8.0 mi WNW 10.4 mph - N/A   Clear
3:35 PM 71.6 °F - 53.6 °F 53% 30.18 in 8.0 mi NNW 8.1 mph - N/A   Clear
3:55 PM 69.8 °F - 53.6 °F 56% 30.17 in 8.0 mi North 6.9 mph - N/A   Clear
4:15 PM 68.0 °F - 51.8 °F 56% 30.17 in 8.0 mi NNW 5.8 mph - N/A   Clear
4:35 PM 64.4 °F - 48.2 °F 56% 30.17 in 8.0 mi NW 4.6 mph - N/A   Clear
4:55 PM 60.8 °F - 44.6 °F 55% 30.18 in 8.0 mi WNW 3.5 mph - N/A   Clear
5:15 PM 57.2 °F - 41.0 °F 55% 30.18 in 10.0 mi Calm Calm - N/A   Clear
5:35 PM 55.4 °F - 39.2 °F 54% 30.18 in 10.0 mi North - - N/A   Clear
5:55 PM 53.6 °F - 37.4 °F 54% 30.19 in 9.0 mi North - - N/A   Clear
6:15 PM 51.8 °F - 35.6 °F 54% 30.19 in 10.0 mi North - - N/A   Clear
6:35 PM 50.0 °F - 33.8 °F 54% 30.20 in 9.0 mi North - - N/A   Clear
6:55 PM 48.2 °F - 33.8 °F 58% 30.20 in 8.0 mi North - - N/A   Clear
7:15 PM 46.4 °F - 32.0 °F 57% 30.20 in 7.0 mi North - - N/A   Clear
7:35 PM 46.4 °F - 32.0 °F 57% 30.21 in 5.0 mi Calm Calm - N/A   Haze
7:55 PM 46.4 °F - 32.0 °F 57% 30.21 in 5.0 mi North - - N/A   Haze
8:15 PM 44.6 °F - 32.0 °F 61% 30.21 in 6.0 mi Calm Calm - N/A   Haze
8:35 PM 44.6 °F - 30.2 °F 57% 30.21 in 5.0 mi North - - N/A   Haze
8:55 PM 42.8 °F - 30.2 °F 61% 30.22 in 2.0 mi Calm Calm - N/A   Haze
9:15 PM 42.8 °F - 28.4 °F 57% 30.22 in 2.5 mi North - - N/A   Haze
9:35 PM 42.8 °F - 28.4 °F 57% 30.22 in 5.0 mi North - - N/A   Haze
9:55 PM 41.0 °F - 28.4 °F 61% 30.22 in 0.2 mi Calm Calm - N/A   Haze
10:15 PM 39.2 °F - 26.6 °F 61% 30.22 in 0.2 mi Calm Calm - N/A   Haze
10:35 PM 39.2 °F - 26.6 °F 61% 30.22 in 3.0 mi Calm Calm - N/A   Haze
10:55 PM 39.2 °F - 26.6 °F 61% 30.22 in 2.0 mi North - - N/A   Haze
11:15 PM 39.2 °F - 26.6 °F 61% 30.22 in 2.5 mi North - - N/A   Haze
11:35 PM 39.2 °F - 26.6 °F 61% 30.22 in 2.0 mi North - - N/A   Haze
11:55 PM 37.4 °F - 24.8 °F 60% 30.22 in 0.5 mi Calm Calm - N/A   Haze